THOR ABLESTAR DEB, 224

Orbit data source: Space-Track

THOR ABLESTAR DEB, 224 is space debris in LEO originally from a launch on Thu, 29 Jun 1961 UTC launched from the Air Force Eastern Test Range (AFETR). Debris objects in space refer to the collection of defunct objects orbiting the Earth. Examples of debris include non-operational satellites, rocket bodies, and fragments generated from explosions, collisions, or faulty payload assembly.

Loading next visibility...
Identifier
224, 1961-015BL
Orbit
LEO
Country
Flag of USUS
Related business
Manufacturer
Unknown
Mission
Spacecraft
Bus & Motor
Unknown
Mass
Unknown
Launch date (UTC)
1961-06-29 (64 years ago)
Launch vehicle
Unknown
Launch site
Air Force Eastern Test Range (AFETR)
Object type
Payload
Rocket body
Debris
Shape & HBR
Unknown shape, 0.2 m
Radar Cross Section
Medium (>0.1 m² and <1 m²)

Expand to show TLE details & history
Last TLE update: 12 hours ago

TLE from 12 hours ago
0 THOR ABLESTAR DEB
1 00224U 61015BL  25351.48047700  .00000337  00000-0  22522-3 0  9996
2 00224  66.7356 253.4518 0061899 164.2637  13.0979 14.11784306286867
Epoch: 2025-12-17T11:31Z
TLE epoch observation values (Epoch: 2025-12-17T11:31:53.212Z)
Latitude
2.18801°
Longitude
173.19416°
Altitude
811.519 km
Speed
7.47 km/s
True Right ascension
04h 50m 03s
True Declination
2° 10' 30"
Sunlit
Object was in full shadow at epoch
Visualization orbit readout
Latitude
Unknown
Longitude
Unknown
Altitude
Unknown
Speed
Unknown
Apparent Right ascension
Unknown
Apparent Declination
Unknown
Sunlit
N/A
Visualization observer readout
Local Sidereal Time
21:59:14
Azimuth
Unknown
Elevation
Unknown
Doppler factor
Unknown
Orbital elements
Apogee altitude
896.409 km
Perigee altitude
806.905 km
Semi-major axis
7,229.794 km
Eccentricity
0.00619
Inclination
66.7356°
RAAN
253.4518°
Arg. of periapsis
164.2637°
True anomaly
13.25986°
Mean anomaly
13.0979°
Eccentric anomaly
13.17876°
Mean motion
3.53065 °/min
Orbital period
101.96 mins
BSTAR
0.00022522
Loading maneuver chart data...
Computing Atmospheric mass density...

Documentation

Showing up to 5 results
|